TimeMST,TemperatureF,Dew PointF,Humidity,Sea Level PressureIn,VisibilityMPH,Wind Direction,Wind SpeedMPH,Gust SpeedMPH,PrecipitationIn,Events,Conditions,WindDirDegrees,DateUTC
12:53 AM,8.1,6.1,92,30.12,10.0,SW,4.6,-,N/A,,Clear,230,2013-02-19 07:53:00
1:53 AM,8.1,5.0,87,30.11,10.0,South,5.8,-,N/A,,Clear,190,2013-02-19 08:53:00
2:53 AM,7.0,3.9,87,30.09,10.0,Calm,Calm,-,N/A,,Clear,0,2013-02-19 09:53:00
3:53 AM,3.9,1.0,88,30.08,10.0,SW,5.8,-,N/A,,Clear,220,2013-02-19 10:53:00
4:53 AM,7.0,3.9,87,30.04,10.0,South,3.5,-,N/A,,Clear,190,2013-02-19 11:53:00
5:53 AM,3.9,-0.0,84,30.07,10.0,South,3.5,-,N/A,,Clear,190,2013-02-19 12:53:00
6:53 AM,3.9,1.0,88,30.07,10.0,SW,3.5,-,N/A,,Clear,230,2013-02-19 13:53:00
7:53 AM,5.0,1.9,87,30.06,10.0,Calm,Calm,-,N/A,,Clear,0,2013-02-19 14:53:00
8:16 AM,5.0,1.4,85,29.85,2.0,Calm,Calm,-,N/A,,Clear,0,2013-02-19 15:16:00
8:24 AM,6.8,3.2,85,29.85,10.0,West,3.5,-,N/A,,Clear,280,2013-02-19 15:24:00
8:35 AM,6.8,3.2,85,29.84,4.0,Calm,Calm,-,N/A,,Partly Cloudy,0,2013-02-19 15:35:00
8:53 AM,8.1,6.1,92,30.05,10.0,SSW,3.5,-,N/A,,Clear,210,2013-02-19 15:53:00
9:53 AM,12.9,10.9,92,30.01,10.0,Calm,Calm,-,N/A,,Clear,0,2013-02-19 16:53:00
11:53 AM,21.9,12.9,68,29.96,10.0,NNE,3.5,-,N/A,,Clear,30,2013-02-19 18:53:00
12:53 PM,26.1,12.9,58,29.91,10.0,Calm,Calm,-,N/A,,Clear,0,2013-02-19 19:53:00
1:53 PM,26.1,15.1,63,29.87,10.0,NE,4.6,-,N/A,,Clear,50,2013-02-19 20:53:00
2:53 PM,30.0,18.0,61,29.84,10.0,Calm,Calm,-,N/A,,Clear,0,2013-02-19 21:53:00
3:53 PM,30.0,18.0,61,29.83,10.0,NNE,5.8,-,N/A,,Clear,30,2013-02-19 22:53:00
5:53 PM,21.9,15.1,75,29.85,10.0,NE,3.5,-,N/A,,Clear,40,2013-02-20 00:53:00
6:53 PM,24.1,16.0,71,29.86,10.0,West,3.5,-,N/A,,Clear,270,2013-02-20 01:53:00
7:53 PM,17.1,12.9,84,29.88,10.0,Calm,Calm,-,N/A,,Clear,0,2013-02-20 02:53:00
8:53 PM,18.0,12.9,81,29.87,10.0,Calm,Calm,-,N/A,,Clear,0,2013-02-20 03:53:00
9:53 PM,16.0,12.0,84,29.87,10.0,ENE,3.5,-,N/A,,Clear,60,2013-02-20 04:53:00
10:53 PM,18.0,12.9,81,29.84,10.0,Calm,Calm,-,N/A,,Clear,0,2013-02-20 05:53:00
11:53 PM,10.0,7.0,87,29.86,10.0,East,3.5,-,N/A,,Clear,80,2013-02-20 06:53:00